Home   Weather   Hyderabad   Past weeks

Flag for India Past Weather in Hyderabad, Telangana, India — Yesterday and Last 2 Weeks

Now
82 °F

Haze.


Feels Like: 81 °F
Forecast: 80 / 99 °F
Wind: No wind

Location: Hyderabad Airport

Current Time: Apr 26, 2017 at 7:49:46 am

Latest Report: Apr 26, 2017 at 7:00 am


Visibility: 2 mi

Pressure: 29.89 "Hg (28.22 "Hg at 507m altitude)

Humidity: 32%

Dew Point: 50 °F

Location of HyderabadLocation

Past Weather in Hyderabad — Graph

°F

Hyderabad Temperature Yesterday

Maximum temperature yesterday: 106 °F (at 1:00 pm)
Minimum temperature yesterday: 72 °F (at 6:00 am)
Average temperature yesterday: 96 °F

High & Low Weather Summary for the Past Weeks

 TemperatureHumidityPressure
High111 °F (Apr 16, 3:30 pm)84% (Apr 19, 6:00 am)29.98 "Hg (Apr 19, 6:00 am)
Low64 °F (Apr 12, 6:00 am)7% (Apr 12, 12:00 pm)29.71 "Hg (Apr 15, 4:00 pm)
Average97 °F21%29.85 "Hg
* Reported Apr 11 6:30 am — Apr 26 6:30 am, Hyderabad, Weather by CustomWeather, © 2017

Note: Actual official high and low records may vary slightly from our data, if they occured in-between our weather recording intervals... More about our weather records

Advertising

Hyderabad Weather History for the Previous 24 Hours

Scroll right to see more
 ConditionsComfort  
Time TempWeatherWind HumidityBarometerVisibility
6:30 am
Wed, Apr 26
81 °FScattered clouds.1 mph28%29.89 "Hg2 mi
6:00 am77 °FPassing clouds.No wind39%29.89 "Hg2 mi
9:00 pm
Tue, Apr 25
86 °FHaze.2 mph24%29.86 "Hg3 mi
8:00 pm93 °FHaze.No wind17%29.86 "Hg3 mi
7:30 pm95 °FHaze.No wind18%29.86 "Hg3 mi
7:00 pm97 °FHaze.No wind16%29.86 "Hg3 mi
6:30 pm99 °FHaze.5 mph16%29.83 "Hg3 mi
6:00 pm100 °FHaze.No wind15%29.83 "Hg3 mi
5:00 pm104 °FClear.2 mph13%29.83 "Hg4 mi
4:30 pm106 °FClear.6 mph13%29.83 "Hg4 mi
4:00 pm106 °FClear.6 mph13%29.83 "Hg4 mi
3:30 pm106 °FClear.No wind14%29.83 "Hg4 mi
3:00 pm106 °FClear.2 mph13%29.86 "Hg4 mi
2:00 pm106 °FClear.2 mph14%29.86 "Hg4 mi
1:30 pm106 °FClear.2 mph14%29.86 "Hg4 mi
1:00 pm106 °FClear.2 mph14%29.89 "Hg4 mi
12:30 pm104 °FClear.2 mph16%29.92 "Hg4 mi
12:00 pm102 °FClear.2 mph16%29.92 "Hg4 mi
11:00 am99 °FClear.2 mph19%29.95 "Hg4 mi
10:00 am97 °FClear.5 mph20%29.95 "Hg4 mi
9:30 am93 °FClear.5 mph23%29.98 "Hg4 mi
9:00 am93 °FClear.2 mph23%29.95 "Hg4 mi
8:30 am90 °FClear.5 mph26%29.95 "Hg4 mi
8:00 am86 °FHaze.3 mph27%29.95 "Hg3 mi
7:15 am77 °FHaze.No wind32%29.92 "Hg3 mi
Weather by CustomWeather, © 2017

See weather overviewHow to use our weather pages